User: anonymous
Location: Plymouth
(43.7570°N, 71.6890°W)
Time: 12:48:22
(UTC-04:00)
Language:

Cosmos 2016 Rocket - Orbit

View from above orbital plane
View from above orbital plane
View from above satellite
View from above satellite

Ground track
Ground track

The orbit data is extracted from the following two-line orbital elements,

1 19922U 89028B   14107.89831060  .00000074  00000-0  59164-4 0    78
2 19922 082.9619 204.4652 0035541 242.6483 256.1290 13.77090040258089
Epoch (UTC): 17 April 2014 21:33:34
Eccentricity: 0.0035541
inclination: 82.9619°
perigee height: 948 km
apogee height: 1000 km
right ascension of ascending node: 204.4652°
argument of perigee: 242.6483°
revolutions per day: 13.77090040
mean anomaly at epoch: 256.1290°
orbit number at epoch: 25808

The dashed part of the orbit path shows where the satellite is in the earth's shadow,  

DLR